sat.trackr.live / text

‹ back to catalog

TURKSAT 4B

NORAD 40984 · 2015-060A

PAYLOAD ACTIVE UNKNOWN

§ Identity

Operator
Country
TURK
Launch date
2015-10-16
Launch site
TYMSC
Launch vehicle
Mass (kg)
RCS (m²)

Purposes: comms

External: N2YO · Heavens-Above · Gunter

§ Orbital elements

Epoch: 2026-05-25T03:58:53.392800Z

Period
1,436.12 min
Inclination
0.0345°
Eccentricity
0.0002365
Mean motion
1.00269894 rev/d
Perigee alt
35,777.2 km
Apogee alt
35,797.1 km
Semi-major
42,165.3 km
B*
0.0000e+0
RAAN
92.9917°
Arg perigee
323.6935°
Mean anomaly
295.7789°
Rev number
3,886

§ Raw data

TURKSAT 4B1 40984U 15060A   26145.16589575  .00000113  00000+0  00000+0 0  99942 40984   0.0345  92.9917 0002365 323.6935 295.7789  1.00269894 38864

JSON: /api/v1/satellites/40984 · /tle

For live sub-satellite position, see the globe view (requires WebGL).

§ Visibility from observer

Set your observer location to see the next 7 days of passes ≥ 10°. The values pass through the URL so the page stays shareable.

No JS? Fill the form by hand. The geolocation button needs JavaScript.